Regional Weather Roundup
Issued by NWS

Home | Current Version | Previous Version | Graphics & Text | Print | Product List | Glossary On
Versions: 1 2 3 4 5 6 7 8 9 10 11 12 13 14 15 16 17 18 19 20 21 22 23 24 25 26 27 28 29 30 31 32 33 34 35 36 37 38 39 40 41 42 43 44 45 46 47 48 49 50
000
ASUS45 KTFX 280004
RWRMT
MONTANA HOURLY WEATHER ROUNDUP
NATIONAL WEATHER SERVICE GREAT FALLS MT
604 PM MDT FRI MAR 27 2015

NOTE: "FAIR" INDICATES FEW OR NO CLOUDS BELOW 12000 FEET WITH NO
SIGNIFICANT WEATHER AND/OR OBSTRUCTIONS TO VISIBILITY.

* THESE STATIONS ARE NOT UNDER NWS QUALITY CONTROL. THEY DO NOT
   REPORT WEATHER SUCH AS PRECIPITATION OR FOG.

MTZ001>007-043-280100-
WEST OF THE DIVIDE
CITY           SKY/WX    TMP DP  RH WIND       PRES   REMARKS
KALISPELL      PTCLDY    66  41  40 S15G20    29.93F
MISSOULA       CLEAR     73  37  27 W3        29.98F
BUTTE          FAIR      64  28  26 W7        30.07F
MULLAN PASS    FAIR      55  36  49 SW9G16    30.08F
* ESSEX        N/A       63  37  38 S4         N/A
* LINCOLN      N/A       70  33  26 S7G16      N/A
* LOOKOUT PASS N/A       62  41  46 NE1G17     N/A
* POLSON       N/A       69  42  38 S1         N/A
* SEELEY LAKE  N/A       66  37  34 N4G13      N/A
* THOMP F APT  CLEAR     60  32  35 S7G18      N/A
$$

MTZ008-052>055-280100-
SOUTHWEST MONTANA
CITY           SKY/WX    TMP DP  RH WIND       PRES   REMARKS
BOZEMAN        CLEAR     73  28  19 W15       29.98F
DILLON         CLEAR     70  27  20 W22       30.05F
* W YELLOWSTON CLEAR     57  32  39 SW6G13     N/A
* BOULDER HILL N/A       66  26  22 SW6G17     N/A
* HOMESTAKE PS N/A       63  28  27 W13G19     N/A
* MONIDA PASS  N/A       57  30  36 S16G23     N/A
* RAYNOLDS PAS N/A       56  37  49 SE12G17    N/A
* WHITEHALL    N/A       77  29  17 NW12G19    N/A
* WISE RIVER   N/A       67  31  26 W14G28     N/A
$$

MTZ009>010-012-014-046-048-049-054-280100-
EAST SLOPES AND CENTRAL MONTANA
CITY           SKY/WX    TMP DP  RH WIND       PRES   REMARKS
CUT BANK       MOCLDY    63  34  34 W22       29.92F
GREAT FALLS    PTCLDY    70  28  21 SW17      29.94S
HELENA         PTCLDY    73  28  19 W20G31    29.96F
MALMSTROM AFB  PTCLDY    72  30  21 W17G24    29.94S
* DEARBORN     N/A       72  32  23 S14G19     N/A
* EAST GLACIER N/A       60  35  39 NW21G35    N/A
* MONARCH      N/A       63  19  18 NW20       N/A
* PENDROY      N/A       66  20  17 NW1        N/A
* ROGERS PASS  N/A       62  31  31 NE2G16     N/A
* SAINT MARY   N/A       62  35  37 SW9G22     N/A
$$

MTZ011-013-016-021-035-040-045-047-050-051-280100-
NORTH CENTRAL MONTANA
CITY           SKY/WX    TMP DP  RH WIND       PRES   REMARKS
HAVRE          PTCLDY    73  28  19 NW14      29.86S
LEWISTOWN      CLEAR     72  27  19 NW14G22   29.96F
* N BAR RANCH  CLEAR     68  27  21 NW17G24   29.98S
* CHESTER      N/A       71  25  18 W20G29     N/A
* DENTON       N/A       72  26  18 NW12G17    N/A
* GEYSER       N/A       69  25  19 W19G26     N/A
* JUDITH GAP   N/A       67  21  17 N20G26     N/A
* LOMA         N/A       75  24  15 NW13G23    N/A
$$

MTZ017>020-022>027-061-062-280100-
NORTHEAST MONTANA
CITY           SKY/WX    TMP DP  RH WIND       PRES   REMARKS
GLASGOW        CLOUDY    68  34  28 W14       29.87S
GLENDIVE       MOCLDY    66  36  33 NW15G21   29.90R
JORDAN         MOCLDY    68  36  31 NW6       29.89F
SIDNEY         MOCLDY    63  37  38 N7        29.89R
WOLF POINT     MOCLDY    68  37  32 N8        29.87S
* BEAVER HILL  N/A       63  35  35 NW15       N/A
* CIRCLE       N/A       65  39  39 NW3G9      N/A
* LINDSAY DVD  N/A       62  36  38 W12G20     N/A
* NAVAJO       N/A       59  39  48 N4G10      N/A
* SACO         N/A       67  33  28 W10G17     N/A
$$

MTZ028>042-056>058-280100-
SOUTHCENTRAL AND SOUTHEAST MONTANA
CITY           SKY/WX    TMP DP  RH WIND       PRES   REMARKS
BAKER          MOCLDY    66  36  33 NW21      29.91R
BILLINGS       PTCLDY    75  23  14 NW17      29.95R
LIVINGSTON     PTCLDY    73  28  19 W17G26    29.98F
MILES CITY     MOCLDY    68  34  28 N13       29.90S
* ALZADA       N/A       65  32  29 W13G18     N/A
* HYSHAM       N/A       71  27  19 NE3G8      N/A
* LAME DEER    N/A       64  31  29 N4         N/A
* REED POINT   N/A       74  34  23 W14G19     N/A
* ROSCOE HILL  N/A       66  15  14 SW2G8      N/A
$$

REGIONAL REPORTS...DAKOTAS
CITY           SKY/WX    TMP DP  RH WIND       PRES   REMARKS
WILLISTON      MOCLDY    61  37  41 N12       29.88F
DICKINSON      CLEAR     61  34  36 N15       29.88R
CROSBY         CLEAR     54  39  57 N13       29.90S
WATFORD CITY   CLEAR     57  36  46 N12G17    29.88R
BISMARCK       PTCLDY    50  34  54 E6        29.90R
GRAND FORKS    CLOUDY    34  19  54 S15       30.08S WCI  24
FARGO          LGT SNOW  30  25  82 S7        30.10R VSB 2    WCI  23
BUFFALO SD     CLEAR     66  34  31 NW23      29.84R
RAPID CITY     PTCLDY    66  36  33 N20       29.92S
$$

REGIONAL REPORTS...WYOMING/IDAHO/WASHINGTON
CITY           SKY/WX    TMP DP  RH WIND       PRES   REMARKS
GILLETTE       PTCLDY    66  28  24 NW17      29.97F
SHERIDAN       PTCLDY    70  28  21 NW15      29.97S
CODY           PTCLDY    68  28  22 W12       30.05S
YELLOWSTONE LA CLEAR     52  25  35 W8        30.25F
SALMON         MOCLDY   N/A N/A N/A SW8       30.01F
MULLAN PASS    FAIR      55  36  49 SW9G16    30.08S
SAND POINT     PTCLDY    59  46  62 CALM      29.94F
SPOKANE        FAIR      70  48  46 SW14      29.94F

$$




USA.gov is the U.S. government's official web portal to all federal, state and local government web resources and services.